Погода в Люксембурге

Люксембург     49°36′39″N   6°07′26″E
темп.,
°C
ветер,
м/с
пор.,
м/с
влажн.,
%
обл.,
%
осадки,
мм/ч
давл.,
гПа
погр.,
м
19 апреля, пн
пн1923:00+7ссз2290100 0.1 102227
02:00+7сз119051 0.1 102127
05:00+6сз2393100 0.0 102091
08:00+6ссз289390 0.0 1020267
11:00+7ссз3692100 0.5 1020405
14:00+10св347478 0.8 1019929
17:00+10св337743 0.8 1018734
20:00+8св249013 1.1 101991
20 апреля, вт
вт2023:00+5св22945 0.0 101914
02:00+4ссв229319 0.0 101912
05:00+4ссв229481 0.0 101911
08:00+5св12935 0.0 101972
11:00+10в22735 0.0 1018664
14:00+13всв225741 0.1 10171492
17:00+13всв2360100 0.0 10161057
20:00+11ссв237340 0.1 101643
21 апреля, ср
ср2123:00+8св228117 0.0 101813
02:00+7ссв2280100 0.0 101716
05:00+8ссв2276100 0.0 101720
08:00+8св2276100 0.0 101827
11:00+10ссв2371100 0.0 1018165
14:00+14с335558 0.0 10181217
17:00+14с445753 0.0 10171317
20:00+10ссв387976 0.1 1017203
22 апреля, чт
чт2223:00+7ссв410895 0.0 1019279
02:00+5ссв410935 0.0 1020258
05:00+3ссв38935 0.0 1021175
08:00+3ссв597631 0.0 1022280
11:00+8св6656100 0.0 1022638
14:00+10св5543100 0.0 1022959
17:00+11ссв56475 0.0 10221208
20:00+8св5967100 0.0 1023272
23 апреля, пт
пт2323:00+5св4107113 0.0 1025219
02:00+3ссв49805 0.0 1025195
05:00+1св38880 0.0 1026141
08:00+3св36810 0.0 1026197
11:00+8всв56552 0.0 1026735
14:00+12всв46452 0.0 10241248
17:00+13в46465 0.0 10231406
20:00+9в36732 0.0 1023106